Location: Eaton Estates
(41.3089°N, 82.0057°W)
Time: 01:00:03
(UTC+00:00)

Cosmos 2322 Rocket - Pass Details

Date: 17 June 2021
Orbit: 833 x 850 km, 71.0° (Epoch: 02 August)

Event Time Altitude Azimuth Distance (km) Brightness Sun altitude
Rises 02:46:38 0° 213° (SSW) 3,396 5.2 -15.2°
Reaches altitude 10° 02:49:07 10° 217° (SW) 2,466 4.5 -15.5°
Maximum altitude 02:54:42 59° 297° (WNW) 978 2.8 -16.1°
Drops below altitude 10° 03:00:20 10° 17° (NNE) 2,484 5.2 -16.7°
Sets 03:02:51 0° 21° (NNE) 3,423 5.9 -17.0°
